RH
94 93 100 99 92 52 45 54 56 51 76 72 100 100 100 100 100 99 94 98 100 100 100 100 98 80 77
79 69 62 65 70 52 48 49 48 56 62 70 79 100 100 100 100 100 100 100 77 80 67 71 61 78 85
42 40 43 52 43 44 47 44 48 56 77 87 74 69 55 78 100 100 100 90 84 83 99 93 100 91 83
50 48 46 44 47 44 47 46 50 68 82 80 76 61 60 65 94 100 100 100 100 100 99 94 76 77 88
60 58 57 54 53 50 52 53 79 91 89 88 62 82 95 100 98 94 99 98 93 84 81 78 76 62 56
44 55 68 81 77 89 100 100 96 100 98 69 89 98 86 88 96 66 55 91 97 92 81 58 54 60 44
35 40 45 62 83 87 99 100 100 94 75 60 55 76 62 59 48 53 66 70 60 51 49 48 44 36 45
23 30 40 50 60 65 73 74 75 69 57 54 54 62 53 55 65 65 53 46 44 46 39 38 38 51 57
24 24 26 28 32 36 40 49 52 47 47 58 61 73 84 70 55 52 50 53 43 41 40 44 55 44 56
29 28 28 30 38 41 43 49 59 57 61 62 74 76 82 72 62 59 54 46 40 51 52 58 53 53 46
41 39 40 38 40 44 48 58 60 60 66 80 94 78 68 64 90 75 54 50 63 52 66 60 43 37 29
45 43 48 56 64 63 65 70 76 74 80 86 74 60 67 72 58 78 74 63 66 58 51 39 33 29 22
48 48 57 68 74 80 93 92 83 80 80 73 78 90 76 71 76 62 54 68 55 44 33 35 25 20 13
54 57 62 69 77 82 82 77 75 78 73 80 75 68 78 73 64 56 48 43 33 39 32 25 16 11 10
62 68 73 74 74 74 73 72 80 91 89 73 70 62 54 59 50 37 35 37 31 22 17 13 10 9 9
82 85 84 80 81 83 85 89 84 73 68 54 52 54 44 37 38 36 37 30 16 13 10 10 9 8 7
81 84 78 72 70 68 53 55 59 56 50 44 37 37 40 48 53 34 18 13 12 10 9 9 8 8 8
Wind_Speed
93 92 93 93 91 89 87 84 84 85 83 82 84 86 86 89 89 92 95 92 95 95 98 101 103 109 110
94 92 92 92 91 90 91 88 87 87 90 90 86 94 96 95 93 96 98 96 101 101 105 107 111 113 116
93 91 92 94 89 90 92 93 92 93 96 96 96 100 101 107 107 106 104 105 104 108 109 112 112 120 122
96 95 94 94 96 91 94 96 98 101 101 101 101 104 104 104 106 105 104 105 110 115 114 118 123 125 128
101 97 97 99 100 97 99 102 103 104 103 104 101 92 96 97 105 107 109 113 118 119 120 120 126 129 129
101 102 102 101 102 100 99 105 103 108 107 103 92 96 98 99 105 109 110 111 114 117 123 125 125 127 129
102 102 101 102 105 106 106 105 107 105 103 102 95 97 100 103 104 106 108 111 115 117 119 122 125 128 129
90 95 100 103 106 107 107 107 108 109 104 100 96 99 103 104 105 108 109 110 113 118 118 122 126 131 136
81 84 89 92 94 95 97 99 99 95 94 95 96 96 102 106 108 109 109 111 116 120 123 129 132 136 140
71 72 75 77 80 82 84 86 88 88 87 92 95 98 102 105 107 110 114 116 120 126 131 135 139 139 128
66 63 65 69 72 75 76 78 82 85 87 88 98 99 102 101 109 115 116 121 128 131 135 139 129 123 120
67 62 62 63 67 70 73 77 82 86 91 94 98 101 104 110 114 120 124 127 129 133 135 125 118 121 119
58 59 61 64 68 73 79 84 86 88 93 96 98 105 111 114 118 124 124 131 131 126 116 121 118 116 108
56 61 64 67 73 77 80 85 88 92 95 100 106 110 114 119 122 124 124 117 108 113 115 120 113 98 92
55 60 64 69 74 79 83 87 91 97 103 107 109 112 116 119 119 108 105 107 110 111 109 103 93 85 83
58 64 69 74 79 84 88 94 98 103 108 111 112 113 109 103 105 106 107 110 107 99 91 84 85 79 70
67 73 78 83 88 92 94 98 103 107 109 105 96 95 98 104 111 115 105 100 93 88 81 80 76 69 62
Wind_Direction
257 259 261 263 264 264 265 268 271 275 278 279 274 276 279 274 277 279 281 285 287 289 288 289 291 292 294
257 258 260 261 261 262 265 268 272 273 275 277 277 273 272 273 276 279 280 283 284 287 286 291 294 295 295
256 258 259 261 262 263 266 269 272 274 275 275 278 280 278 275 275 276 280 284 285 286 289 292 294 294 295
255 257 260 262 263 265 268 271 273 274 276 279 281 280 276 275 275 279 278 280 282 285 289 291 292 293 295
255 257 259 262 264 266 268 270 272 274 276 281 282 277 274 274 273 276 278 280 283 285 288 289 290 292 293
255 256 258 261 263 266 268 269 272 275 277 280 275 273 276 278 277 279 281 281 283 285 286 289 292 292 295
253 255 257 259 262 263 265 269 270 272 274 278 278 276 278 278 279 279 280 282 284 287 288 290 292 294 297
253 253 254 256 258 261 263 266 269 272 275 275 277 279 281 281 280 280 283 284 288 288 290 292 294 297 300
251 253 254 256 259 261 263 265 267 271 273 275 278 279 280 280 282 284 287 287 289 290 293 295 297 300 303
251 254 255 256 257 259 261 265 268 273 274 276 275 276 278 283 285 287 289 291 294 294 296 298 300 302 304
251 255 255 256 260 264 267 270 272 273 273 274 276 278 280 283 285 285 289 292 291 296 297 299 303 304 301
244 254 259 261 263 265 267 269 271 272 275 277 278 281 284 284 285 288 289 292 294 298 299 300 301 301 305
244 254 258 261 263 265 268 270 272 274 276 278 281 281 282 284 285 288 293 294 296 299 298 300 302 305 305
246 252 256 259 261 266 268 271 274 275 276 277 278 280 282 287 290 293 296 297 298 299 299 303 303 304 303
254 257 260 263 265 268 271 273 275 276 277 280 282 287 292 292 294 296 298 299 299 302 304 302 302 303 303
263 264 266 268 269 269 270 271 274 278 280 285 290 291 295 295 298 298 299 300 304 305 302 304 303 303 305
264 265 267 268 270 273 278 283 284 287 288 290 293 294 296 299 299 298 300 304 307 304 304 305 303 304 304